Time,TemperatureF,DewpointF,PressureIn,WindDirection,WindDirectionDegrees,WindSpeedMPH,WindSpeedGustMPH,Humidity,HourlyPrecipIn,Conditions,Clouds,dailyrainin,SoftwareType,DateUTC
2013-06-10 00:04:00,71.6,61.0,29.86,SW,219,1.0,2.0,70,0.00,,,0.00,weatherlink.com 1.10,2013-06-10 05:04:00,
2013-06-10 00:19:00,71.8,61.0,29.86,SW,219,0.0,4.0,69,0.00,,,0.00,weatherlink.com 1.10,2013-06-10 05:19:00,
2013-06-10 00:34:00,72.3,61.0,29.86,SW,219,0.0,5.0,67,0.00,,,0.00,weatherlink.com 1.10,2013-06-10 05:34:00,
2013-06-10 00:49:00,73.3,61.0,29.87,SW,219,3.0,7.0,65,0.00,,,0.00,weatherlink.com 1.10,2013-06-10 05:49:00,
2013-06-10 01:04:00,74.1,62.0,29.87,SW,215,7.0,10.0,65,0.00,,,0.00,weatherlink.com 1.10,2013-06-10 06:04:00,
2013-06-10 01:19:00,74.4,62.0,29.87,SSW,213,4.0,8.0,66,0.00,,,0.00,weatherlink.com 1.10,2013-06-10 06:19:00,
2013-06-10 01:34:00,74.1,63.0,29.87,SSW,208,5.0,10.0,68,0.00,,,0.00,weatherlink.com 1.10,2013-06-10 06:34:00,
2013-06-10 01:49:00,73.5,63.0,29.87,SW,223,3.0,7.0,70,0.00,,,0.00,weatherlink.com 1.10,2013-06-10 06:49:00,
2013-06-10 02:04:00,72.8,63.0,29.87,SW,219,3.0,6.0,72,0.00,,,0.00,weatherlink.com 1.10,2013-06-10 07:04:00,
2013-06-10 02:19:00,72.3,63.0,29.87,SW,219,4.0,5.0,73,0.00,,,0.00,weatherlink.com 1.10,2013-06-10 07:19:00,
2013-06-10 02:34:00,71.8,63.0,29.87,SSW,211,4.0,6.0,74,0.00,,,0.00,weatherlink.com 1.10,2013-06-10 07:34:00,
2013-06-10 02:49:00,71.6,63.0,29.87,SSW,206,7.0,8.0,75,0.00,,,0.00,weatherlink.com 1.10,2013-06-10 07:49:00,
2013-06-10 03:04:00,72.0,64.0,29.87,WSW,240,4.0,9.0,76,0.00,,,0.00,weatherlink.com 1.10,2013-06-10 08:04:00,
2013-06-10 03:19:00,72.3,64.0,29.87,SW,229,6.0,8.0,76,0.00,,,0.00,weatherlink.com 1.10,2013-06-10 08:19:00,
2013-06-10 03:34:00,73.2,65.0,29.87,SW,223,4.0,10.0,75,0.00,,,0.00,weatherlink.com 1.10,2013-06-10 08:34:00,
2013-06-10 03:49:00,73.5,65.0,29.87,SSW,213,4.0,11.0,75,0.00,,,0.00,weatherlink.com 1.10,2013-06-10 08:49:00,
2013-06-10 04:04:00,73.6,65.0,29.87,SW,227,4.0,10.0,75,0.00,,,0.00,weatherlink.com 1.10,2013-06-10 09:04:00,
2013-06-10 04:19:00,73.6,66.0,29.87,SW,236,9.0,10.0,76,0.00,,,0.00,weatherlink.com 1.10,2013-06-10 09:19:00,
2013-06-10 04:34:00,73.4,65.0,29.88,SW,219,4.0,8.0,76,0.00,,,0.00,weatherlink.com 1.10,2013-06-10 09:34:00,
2013-06-10 04:49:00,73.5,66.0,29.87,WSW,250,9.0,10.0,76,0.00,,,0.00,weatherlink.com 1.10,2013-06-10 09:49:00,
2013-06-10 05:04:00,73.5,66.0,29.87,SW,221,5.0,12.0,76,0.00,,,0.00,weatherlink.com 1.10,2013-06-10 10:04:00,
2013-06-10 05:19:00,73.5,66.0,29.88,SW,233,6.0,12.0,76,0.00,,,0.00,weatherlink.com 1.10,2013-06-10 10:19:00,
2013-06-10 05:34:00,73.1,66.0,29.88,SW,232,4.0,8.0,77,0.00,,,0.00,weatherlink.com 1.10,2013-06-10 10:34:00,
2013-06-10 05:49:00,72.9,66.0,29.89,WSW,246,7.0,9.0,78,0.00,,,0.00,weatherlink.com 1.10,2013-06-10 10:49:00,
2013-06-10 06:04:00,72.7,66.0,29.89,SW,235,1.0,9.0,78,0.00,,,0.00,weatherlink.com 1.10,2013-06-10 11:04:00,
2013-06-10 06:19:00,72.2,65.0,29.89,SSW,207,1.0,5.0,79,0.00,,,0.00,weatherlink.com 1.10,2013-06-10 11:19:00,
2013-06-10 06:34:00,72.5,66.0,29.90,SW,233,8.0,11.0,79,0.00,,,0.00,weatherlink.com 1.10,2013-06-10 11:34:00,
2013-06-10 06:49:00,72.8,66.0,29.90,SW,229,3.0,7.0,79,0.00,,,0.00,weatherlink.com 1.10,2013-06-10 11:49:00,
2013-06-10 07:04:00,73.0,66.0,29.90,SSW,212,5.0,8.0,79,0.00,,,0.00,weatherlink.com 1.10,2013-06-10 12:04:00,
2013-06-10 07:20:00,73.1,67.0,29.90,SW,221,7.0,8.0,80,0.00,,,0.00,weatherlink.com 1.10,2013-06-10 12:20:00,
2013-06-10 07:35:00,73.7,66.0,29.90,SSW,207,3.0,10.0,78,0.00,,,0.00,weatherlink.com 1.10,2013-06-10 12:35:00,
2013-06-10 07:50:00,74.3,67.0,29.91,SW,215,4.0,12.0,77,0.00,,,0.00,weatherlink.com 1.10,2013-06-10 12:50:00,
2013-06-10 08:05:00,75.0,67.0,29.91,WSW,257,4.0,16.0,77,0.00,,,0.00,weatherlink.com 1.10,2013-06-10 13:05:00,
2013-06-10 08:20:00,76.1,68.0,29.91,SW,233,5.0,15.0,75,0.00,,,0.00,weatherlink.com 1.10,2013-06-10 13:20:00,
2013-06-10 08:35:00,77.3,68.0,29.92,WSW,242,8.0,14.0,74,0.00,,,0.00,weatherlink.com 1.10,2013-06-10 13:35:00,
2013-06-10 08:50:00,78.4,69.0,29.92,SW,220,9.0,20.0,73,0.00,,,0.00,weatherlink.com 1.10,2013-06-10 13:50:00,
2013-06-10 09:05:00,79.3,69.0,29.92,SW,236,8.0,13.0,71,0.00,,,0.00,weatherlink.com 1.10,2013-06-10 14:05:00,
2013-06-10 09:20:00,79.9,69.0,29.93,SW,226,5.0,18.0,70,0.00,,,0.00,weatherlink.com 1.10,2013-06-10 14:20:00,
2013-06-10 09:35:00,80.6,70.0,29.92,SW,219,7.0,15.0,71,0.00,,,0.00,weatherlink.com 1.10,2013-06-10 14:35:00,
2013-06-10 09:50:00,81.0,69.0,29.92,SW,232,10.0,15.0,68,0.00,,,0.00,weatherlink.com 1.10,2013-06-10 14:50:00,
2013-06-10 10:05:00,81.8,70.0,29.93,SW,229,11.0,17.0,68,0.00,,,0.00,weatherlink.com 1.10,2013-06-10 15:05:00,
2013-06-10 10:20:00,81.9,70.0,29.92,SSW,200,11.0,15.0,68,0.00,,,0.00,weatherlink.com 1.10,2013-06-10 15:20:00,
2013-06-10 10:35:00,82.7,71.0,29.92,SW,232,7.0,14.0,67,0.00,,,0.00,weatherlink.com 1.10,2013-06-10 15:35:00,
2013-06-10 10:50:00,83.2,71.0,29.92,South,186,7.0,15.0,66,0.00,,,0.00,weatherlink.com 1.10,2013-06-10 15:50:00,
2013-06-10 11:05:00,83.6,70.0,29.92,WSW,244,10.0,18.0,64,0.00,,,0.00,weatherlink.com 1.10,2013-06-10 16:05:00,
2013-06-10 11:20:00,84.7,72.0,29.92,SSW,209,9.0,15.0,65,0.00,,,0.00,weatherlink.com 1.10,2013-06-10 16:20:00,
2013-06-10 11:35:00,84.8,71.0,29.91,SSW,194,5.0,17.0,63,0.00,,,0.00,weatherlink.com 1.10,2013-06-10 16:35:00,
2013-06-10 11:50:00,85.6,71.0,29.91,SSW,202,9.0,13.0,62,0.00,,,0.00,weatherlink.com 1.10,2013-06-10 16:50:00,
2013-06-10 12:05:00,85.5,71.0,29.91,SW,221,10.0,14.0,62,0.00,,,0.00,weatherlink.com 1.10,2013-06-10 17:05:00,
2013-06-10 12:20:00,86.4,71.0,29.91,South,178,7.0,18.0,61,0.00,,,0.00,weatherlink.com 1.10,2013-06-10 17:20:00,
2013-06-10 12:35:00,87.4,72.0,29.90,South,190,8.0,16.0,60,0.00,,,0.00,weatherlink.com 1.10,2013-06-10 17:35:00,
2013-06-10 12:50:00,87.7,70.0,29.90,SW,224,13.0,15.0,56,0.00,,,0.00,weatherlink.com 1.10,2013-06-10 17:50:00,
2013-06-10 13:05:00,88.3,71.0,29.89,SW,221,8.0,16.0,56,0.00,,,0.00,weatherlink.com 1.10,2013-06-10 18:05:00,
2013-06-10 13:20:00,88.5,70.0,29.89,SW,217,7.0,19.0,54,0.00,,,0.00,weatherlink.com 1.10,2013-06-10 18:20:00,
2013-06-10 13:35:00,89.1,70.0,29.88,SSW,199,10.0,18.0,53,0.00,,,0.00,weatherlink.com 1.10,2013-06-10 18:35:00,
2013-06-10 13:50:00,89.2,69.0,29.88,SW,221,7.0,16.0,52,0.00,,,0.00,weatherlink.com 1.10,2013-06-10 18:50:00,
2013-06-10 14:05:00,89.9,70.0,29.88,SSW,207,12.0,16.0,53,0.00,,,0.00,weatherlink.com 1.10,2013-06-10 19:05:00,
2013-06-10 14:20:00,90.7,70.0,29.87,South,191,6.0,16.0,51,0.00,,,0.00,weatherlink.com 1.10,2013-06-10 19:20:00,
2013-06-10 14:35:00,90.9,70.0,29.87,SSW,194,7.0,18.0,51,0.00,,,0.00,weatherlink.com 1.10,2013-06-10 19:35:00,
2013-06-10 14:50:00,91.1,71.0,29.87,South,186,6.0,15.0,51,0.00,,,0.00,weatherlink.com 1.10,2013-06-10 19:50:00,
2013-06-10 15:06:00,91.5,69.0,29.86,SSW,193,11.0,17.0,48,0.00,,,0.00,weatherlink.com 1.10,2013-06-10 20:06:00,
2013-06-10 15:20:00,91.9,69.0,29.86,SSW,212,11.0,22.0,47,0.00,,,0.00,weatherlink.com 1.10,2013-06-10 20:20:00,
2013-06-10 15:36:00,92.2,71.0,29.86,SW,221,10.0,16.0,50,0.00,,,0.00,weatherlink.com 1.10,2013-06-10 20:36:00,
2013-06-10 15:50:00,91.9,69.0,29.85,SW,225,6.0,15.0,47,0.00,,,0.00,weatherlink.com 1.10,2013-06-10 20:50:00,
2013-06-10 16:05:00,92.7,70.0,29.85,South,190,11.0,15.0,47,0.00,,,0.00,weatherlink.com 1.10,2013-06-10 21:05:00,
2013-06-10 16:20:00,92.5,70.0,29.85,South,187,15.0,18.0,48,0.00,,,0.00,weatherlink.com 1.10,2013-06-10 21:20:00,
2013-06-10 16:35:00,92.6,69.0,29.85,SSW,196,14.0,18.0,46,0.00,,,0.00,weatherlink.com 1.10,2013-06-10 21:35:00,
2013-06-10 16:50:00,92.6,69.0,29.85,South,184,5.0,16.0,46,0.00,,,0.00,weatherlink.com 1.10,2013-06-10 21:50:00,
2013-06-10 17:05:00,92.5,69.0,29.85,SSW,200,8.0,16.0,46,0.00,,,0.00,weatherlink.com 1.10,2013-06-10 22:05:00,
2013-06-10 17:20:00,92.4,69.0,29.85,SSW,192,11.0,18.0,46,0.00,,,0.00,weatherlink.com 1.10,2013-06-10 22:20:00,
2013-06-10 17:35:00,92.2,69.0,29.85,SSW,207,6.0,16.0,46,0.00,,,0.00,weatherlink.com 1.10,2013-06-10 22:35:00,
2013-06-10 17:50:00,92.4,69.0,29.84,SSW,194,13.0,14.0,46,0.00,,,0.00,weatherlink.com 1.10,2013-06-10 22:50:00,
2013-06-10 18:05:00,92.3,67.0,29.84,South,189,11.0,15.0,43,0.00,,,0.00,weatherlink.com 1.10,2013-06-10 23:05:00,
2013-06-10 18:20:00,92.2,66.0,29.84,SW,219,10.0,17.0,42,0.00,,,0.00,weatherlink.com 1.10,2013-06-10 23:20:00,
2013-06-10 18:35:00,92.1,67.0,29.84,South,187,6.0,11.0,44,0.00,,,0.00,weatherlink.com 1.10,2013-06-10 23:35:00,
2013-06-10 18:50:00,92.0,68.0,29.84,SSW,196,6.0,10.0,46,0.00,,,0.00,weatherlink.com 1.10,2013-06-10 23:50:00,
2013-06-10 19:05:00,91.7,69.0,29.84,SSW,197,4.0,10.0,47,0.00,,,0.00,weatherlink.com 1.10,2013-06-11 00:05:00,
2013-06-10 19:21:00,90.8,68.0,29.85,SSW,196,5.0,8.0,47,0.00,,,0.00,weatherlink.com 1.10,2013-06-11 00:21:00,
2013-06-10 19:36:00,90.0,69.0,29.85,South,188,6.0,8.0,50,0.00,,,0.00,weatherlink.com 1.10,2013-06-11 00:36:00,
2013-06-10 19:51:00,89.1,69.0,29.85,South,189,3.0,7.0,52,0.00,,,0.00,weatherlink.com 1.10,2013-06-11 00:51:00,
2013-06-10 20:06:00,87.9,70.0,29.85,South,188,2.0,4.0,56,0.00,,,0.00,weatherlink.com 1.10,2013-06-11 01:06:00,
2013-06-10 20:21:00,86.3,70.0,29.85,South,187,2.0,4.0,58,0.00,,,0.00,weatherlink.com 1.10,2013-06-11 01:21:00,
2013-06-10 20:36:00,85.3,69.0,29.85,SSE,168,5.0,6.0,58,0.00,,,0.00,weatherlink.com 1.10,2013-06-11 01:36:00,
2013-06-10 21:21:00,83.2,68.0,29.85,South,173,4.0,7.0,61,0.00,,,0.00,weatherlink.com 1.10,2013-06-11 02:21:00,
2013-06-10 21:36:00,82.5,69.0,29.85,South,169,4.0,6.0,63,0.00,,,0.00,weatherlink.com 1.10,2013-06-11 02:36:00,
2013-06-10 22:06:00,81.5,70.0,29.86,SSE,166,5.0,5.0,68,0.00,,,0.00,weatherlink.com 1.10,2013-06-11 03:06:00,
2013-06-10 22:36:00,80.9,71.0,29.87,South,178,4.0,8.0,71,0.00,,,0.00,weatherlink.com 1.10,2013-06-11 03:36:00,
2013-06-10 22:51:00,80.6,71.0,29.87,South,180,3.0,8.0,72,0.00,,,0.00,weatherlink.com 1.10,2013-06-11 03:51:00,
2013-06-10 23:06:00,80.8,71.0,29.88,SSW,202,7.0,8.0,72,0.00,,,0.00,weatherlink.com 1.10,2013-06-11 04:06:00,
2013-06-10 23:21:00,82.1,71.0,29.88,South,184,10.0,12.0,68,0.00,,,0.00,weatherlink.com 1.10,2013-06-11 04:21:00,
2013-06-10 23:51:00,82.7,70.0,29.87,SSW,206,6.0,12.0,66,0.00,,,0.00,weatherlink.com 1.10,2013-06-11 04:51:00,